Moab, UT

6:58 AM MST on November 22, 2019 (GMT -0700)
Canyonlands

Weather History for KCNY - May, 2019

Change the Weather History Date:

Thursday, May 16, 2019

  Actual Average Record
Temperature  
Mean Temperature 72 °F 63 °F  
Max Temperature 83 °F 78 °F 95 °F (1937)
Min Temperature 61 °F 47 °F 31 °F (1955)
Degree Days  
Heating Degree Days 0 4  
Month to date heating degree days 106 95  
Since 1 July heating degree days 5676 5520  
Cooling Degree Days 7 2  
Month to date cooling degree days 12 15  
Year to date cooling degree days 14 18  
Growing Degree Days 22 (Base 50)    
Moisture  
Dew Point 29 °F    
Average Humidity 25    
Maximum Humidity 39    
Minimum Humidity 10    
Precipitation  
Precipitation T in 0.02 in 0.50 in (1993)
Month to date precipitation T 0.35  
Year to date precipitation 4.99 2.97  
Sea Level Pressure  
Sea Level Pressure 29.56 in    
Wind  
Wind Speed 15 mph (SSW)    
Max Wind Speed 35 mph    
Max Gust Speed 48 mph    
Visibility 10 miles    
Events      
T = Trace of Precipitation, MM = Missing Value Source: NWS Daily Summary

Daily Weather History Graph

Daily Weather History Graph

Search for Another Location

Airport or City:

Astronomy

May. 16, 2019 Rise Set
Actual Time 6:06 AM MDT 8:25 PM MDT
Civil Twilight 5:36 AM MDT 8:55 PM MDT
Nautical Twilight 4:59 AM MDT 9:32 PM MDT
Astronomical Twilight 4:18 AM MDT 10:13 PM MDT
Moon 6:10 PM MDT (5/16) 5:03 AM MDT (5/16)
Length of Visible Light 15h 19m
Length of Day
14h 19m
Waxing Gibbous, 94% of the Moon is Illuminated
May 16
Waxing Gibbous
May 18
Full
May 26
Last Quarter
Jun 3
New
Jun 10
First Quarter

Hourly Weather History & Observations

Time (MDT) Temp. Dew Point Humidity Pressure Visibility Wind Dir Wind Speed Gust Speed Precip Events Conditions
12:53 AM 64.9 °F 34.0 °F 32% 29.66 in 10.0 mi WSW 3.5 mph - N/A   Clear
1:53 AM 64.0 °F 34.0 °F 33% 29.66 in 10.0 mi Calm Calm - N/A   Clear
2:53 AM 66.9 °F 33.1 °F 28% 29.63 in 10.0 mi Calm Calm - N/A   Clear
3:53 AM 63.0 °F 37.0 °F 38% 29.64 in 10.0 mi SW 4.6 mph - N/A   Clear
4:53 AM 63.0 °F 37.0 °F 38% 29.65 in 10.0 mi WSW 6.9 mph - N/A   Clear
5:53 AM 64.0 °F 37.0 °F 37% 29.66 in 10.0 mi SSW 9.2 mph - N/A   Clear
6:53 AM 64.9 °F 36.0 °F 34% 29.67 in 10.0 mi East 3.5 mph - N/A   Clear
7:53 AM 66.9 °F 37.0 °F 33% 29.68 in 10.0 mi South 10.4 mph - N/A   Clear
8:53 AM 71.1 °F 36.0 °F 28% 29.68 in 10.0 mi SSE 8.1 mph - N/A   Clear
9:53 AM 73.0 °F 35.1 °F 25% 29.66 in 10.0 mi South 16.1 mph - N/A   Clear
10:53 AM 75.0 °F 34.0 °F 22% 29.65 in 10.0 mi SSE 19.6 mph 24.2 mph N/A   Clear
11:53 AM 77.0 °F 28.0 °F 17% 29.61 in 10.0 mi South 20.7 mph 28.8 mph N/A   Clear
12:53 PM 80.1 °F 28.0 °F 15% 29.58 in 10.0 mi SSE 13.8 mph 32.2 mph N/A   Clear
1:53 PM 79.0 °F 24.1 °F 13% 29.55 in 10.0 mi South 17.3 mph 29.9 mph N/A   Clear
2:53 PM 79.0 °F 23.0 °F 13% 29.52 in 10.0 mi South 20.7 mph 27.6 mph N/A   Clear
3:53 PM 80.1 °F 24.1 °F 13% 29.48 in 10.0 mi SSW 19.6 mph 33.4 mph N/A   Partly Cloudy
4:53 PM 79.0 °F 19.9 °F 11% 29.46 in 10.0 mi SSW 20.7 mph 31.1 mph N/A   Clear
5:53 PM 80.1 °F 19.9 °F 11% 29.43 in 10.0 mi South 18.4 mph 27.6 mph N/A   Clear
6:53 PM 78.1 °F 24.1 °F 14% 29.40 in 10.0 mi South 15.0 mph - N/A   Clear
7:53 PM 75.9 °F 19.9 °F 12% 29.39 in 10.0 mi SSW 20.7 mph 32.2 mph N/A   Clear
8:53 PM 73.9 °F 18.0 °F 12% 29.40 in 10.0 mi SSW 17.3 mph - N/A   Clear
9:53 PM 72.0 °F 24.1 °F 17% 29.43 in 10.0 mi South 20.7 mph 31.1 mph N/A   Scattered Clouds
10:53 PM 68.0 °F 30.0 °F 24% 29.46 in 10.0 mi West 17.3 mph 28.8 mph N/A   Clear
11:53 PM 64.9 °F 34.0 °F 32% 29.47 in 10.0 mi West 21.9 mph 38.0 mph N/A   Mostly Cloudy